GSAT0222 (GALILEO 26)

Last updated on Jan. 24, 2020, 4:41 a.m. UTC

1 43565U 18060B   20023.33164391 -.00000063  00000-0  00000-0 0  9995
2 43565  56.7172  45.0457 0006219 278.6968  81.2883  1.70476184  9379
UTC
Height (km)
Latitude
Longitude
Inclination
Orbital Period
UTC large
Height (km)
Speed (km/s)
/
Latitude / Longitude
Inclination (degrees)
Orbital Period (minutes)
Azimuth
Elevation
Range (km)
Doppler Factor
iOS Compass Heading
iOS Angle

Next 30 passes for location: Hong Kong

Rise time Rise Azimuth (degrees) Set time Set Azimuth (degrees) Duration Max altitude (degrees)

No matching passes for this satellites